Location: Arcueil
(48.7999°N, 2.3326°E)
Time: 14:07:26
(UTC+00:00)

USA 215 - Pass Details

Date: 03 February 2023
Orbit: 1100 x 1107 km, 123.0° (Epoch: 18 March)

Event Time Altitude Azimuth Distance (km) Brightness Sun altitude
Rises 18:15:15 0° 148° (SSE) 3,909 5.9 -14.0°
Reaches altitude 10° 18:17:52 10° 155° (SSE) 2,954 5.3 -14.5°
Maximum altitude 18:24:02 44° 226° (SW) 1,478 4.3 -15.5°
Drops below altitude 10° 18:30:15 10° 297° (WNW) 2,963 6.4 -16.5°
Sets 18:32:53 0° 304° (NW) 3,924 7.0 -16.9°
